When you browse on this site, cookies collect data to enhance your experience and personalize the content and advertising you see.
Visit our Privacy Policy to learn more. By continuing to use the site, you agree to this use of cookies and data.
  • In Latvia
  • List of Countries
  • For 7 days
  • Water Temperature
  • Satellite Maps
  • Weather Map
  • Weather Widgets
  • user-avatar
    Login

    Hourly Weather Barnsley

    Today, 27 March, Wednesday

    Time Temperature Precipitation Wind Pressure Humidity
    00:00 +5°C° 0 mm 3 mps 764 mmHg 87%
    01:00 +5°C° 0 mm 3 mps 764 mmHg 88%
    02:00 +5°C° 0 mm 3 mps 764 mmHg 89%
    03:00 +5°C° 0 mm 3 mps 764 mmHg 90%
    04:00 +5°C° 0 mm 3 mps 764 mmHg 90%
    05:00 +5°C° 0 mm 3 mps 764 mmHg 91%
    06:00 +5°C° 0 mm 3 mps 764 mmHg 91%
    07:00 +7°C° 0 mm 3 mps 764 mmHg 86%
    08:00 +7°C° 0 mm 4 mps 765 mmHg 80%
    09:00 +8°C° 0 mm 4 mps 765 mmHg 75%
    10:00 +10°C° 0 mm 4 mps 765 mmHg 71%
    11:00 +11°C° 0 mm 4 mps 765 mmHg 68%
    12:00 +12°C° 0 mm 4 mps 765 mmHg 64%
    13:00 +12°C° 0 mm 4 mps 765 mmHg 63%
    14:00 +12°C° 0 mm 4 mps 765 mmHg 62%
    15:00 +13°C° 0 mm 4 mps 765 mmHg 61%
    16:00 +12°C° 0 mm 4 mps 765 mmHg 65%
    17:00 +10°C° 0 mm 4 mps 765 mmHg 69%
    18:00 +9°C° 0 mm 3 mps 765 mmHg 73%
    19:00 +9°C° 0 mm 3 mps 765 mmHg 77%
    20:00 +8°C° 0 mm 3 mps 766 mmHg 81%
    21:00 +7°C° 0 mm 3 mps 766 mmHg 85%
    22:00 +5°C° 0 mm 3 mps 766 mmHg 86%
    23:00 +6°C° 0 mm 2 mps 766 mmHg 86%

    Tomorrow, 28 March, Thursday

    Time Temperature Precipitation Wind Pressure Humidity
    00:00 +6°C° 0 mm 2 mps 766 mmHg 87%
    01:00 +6°C° 0 mm 2 mps 766 mmHg 88%
    02:00 +5°C° 0 mm 2 mps 766 mmHg 89%
    03:00 +5°C° 0 mm 2 mps 766 mmHg 90%
    04:00 +5°C° 0 mm 2 mps 766 mmHg 91%
    05:00 +5°C° 0 mm 2 mps 766 mmHg 92%
    06:00 +5°C° 0 mm 2 mps 766 mmHg 93%
    07:00 +6°C° 0 mm 2 mps 766 mmHg 87%
    08:00 +8°C° 0 mm 2 mps 766 mmHg 81%
    09:00 +9°C° 0 mm 2 mps 767 mmHg 75%
    10:00 +10°C° 0 mm 2 mps 766 mmHg 69%
    11:00 +12°C° 0 mm 3 mps 766 mmHg 63%
    12:00 +13°C° 0 mm 3 mps 766 mmHg 57%
    13:00 +13°C° 0 mm 3 mps 766 mmHg 55%
    14:00 +14°C° 0 mm 3 mps 765 mmHg 53%
    15:00 +14°C° 0 mm 3 mps 765 mmHg 52%
    16:00 +13°C° 0 mm 3 mps 765 mmHg 54%
    17:00 +12°C° 0 mm 3 mps 765 mmHg 56%
    18:00 +12°C° 0 mm 2 mps 764 mmHg 59%
    19:00 +10°C° 0 mm 2 mps 764 mmHg 62%
    20:00 +9°C° 0 mm 2 mps 764 mmHg 65%
    21:00 +8°C° 0 mm 2 mps 765 mmHg 68%
    22:00 +8°C° 0 mm 2 mps 764 mmHg 71%
    23:00 +8°C° 0 mm 1 mps 764 mmHg 74%

    Day after tomorrow, 29 March, Friday

    Time Temperature Precipitation Wind Pressure Humidity
    00:00 +8°C° 0 mm 1 mps 764 mmHg 76%
    01:00 +8°C° 0 mm 1 mps 764 mmHg 79%
    02:00 +7°C° 0 mm 1 mps 764 mmHg 82%
    03:00 +6°C° 0 mm 2 mps 764 mmHg 84%
    04:00 +6°C° 0 mm 2 mps 763 mmHg 82%
    05:00 +6°C° 0 mm 2 mps 763 mmHg 81%
    06:00 +5°C° 0 mm 2 mps 763 mmHg 79%
    07:00 +7°C° 0 mm 2 mps 763 mmHg 70%
    08:00 +9°C° 0 mm 2 mps 763 mmHg 60%
    09:00 +10°C° 0 mm 2 mps 762 mmHg 51%
    10:00 +13°C° 0 mm 2 mps 762 mmHg 46%
    11:00 +14°C° 0 mm 2 mps 762 mmHg 41%
    12:00 +16°C° 0 mm 3 mps 762 mmHg 36%
    13:00 +16°C° 0 mm 3 mps 761 mmHg 37%
    14:00 +17°C° 0 mm 3 mps 761 mmHg 38%
    15:00 +17°C° 0 mm 3 mps 760 mmHg 39%
    16:00 +16°C° 0 mm 2 mps 760 mmHg 44%
    17:00 +15°C° 0 mm 2 mps 760 mmHg 50%
    18:00 +14°C° 0 mm 2 mps 760 mmHg 55%
    19:00 +13°C° 0 mm 2 mps 760 mmHg 60%
    20:00 +11°C° 0 mm 1 mps 760 mmHg 64%
    21:00 +10°C° 0 mm 1 mps 760 mmHg 69%
    22:00 +10°C° 0 mm 1 mps 760 mmHg 72%
    23:00 +9°C° 0 mm 1 mps 760 mmHg 74%

    30 March, Saturday

    Time Temperature Precipitation Wind Pressure Humidity
    00:00 +9°C° 0 mm 1 mps 760 mmHg 76%
    01:00 +8°C° 0 mm 1 mps 759 mmHg 77%
    02:00 +8°C° 0 mm 1 mps 759 mmHg 78%
    03:00 +7°C° 0 mm 1 mps 758 mmHg 78%
    04:00 +6°C° 0 mm 2 mps 758 mmHg 76%
    05:00 +6°C° 0 mm 2 mps 758 mmHg 74%
    06:00 +5°C° 0 mm 2 mps 758 mmHg 72%
    07:00 +7°C° 0 mm 2 mps 758 mmHg 68%
    08:00 +8°C° 0 mm 3 mps 758 mmHg 64%
    09:00 +10°C° 0 mm 3 mps 757 mmHg 60%
    10:00 +11°C° 0 mm 3 mps 757 mmHg 59%
    11:00 +12°C° 0 mm 4 mps 757 mmHg 59%
    12:00 +13°C° 0 mm 5 mps 756 mmHg 59%
    13:00 +13°C° 0 mm 5 mps 756 mmHg 59%
    14:00 +13°C° 0 mm 5 mps 756 mmHg 59%
    15:00 +13°C° 0 mm 5 mps 755 mmHg 59%
    16:00 +12°C° 0 mm 5 mps 755 mmHg 64%
    17:00 +10°C° 0 mm 5 mps 756 mmHg 68%
    18:00 +10°C° 0 mm 4 mps 756 mmHg 73%
    19:00 +8°C° 0 mm 4 mps 756 mmHg 74%
    20:00 +7°C° 0 mm 4 mps 757 mmHg 76%
    21:00 +7°C° 0 mm 4 mps 758 mmHg 77%
    22:00 +7°C° 0 mm 3 mps 758 mmHg 75%
    23:00 +7°C° 0 mm 3 mps 758 mmHg 73%

    31 March, Sunday

    Time Temperature Precipitation Wind Pressure Humidity
    00:00 +7°C° 0 mm 3 mps 759 mmHg 71%
    01:00 +5°C° 0 mm 4 mps 759 mmHg 72%
    02:00 +4°C° 0 mm 4 mps 759 mmHg 72%
    03:00 +3°C° 0 mm 4 mps 760 mmHg 73%
    04:00 +3°C° 0 mm 4 mps 760 mmHg 74%
    05:00 +1°C° 0 mm 4 mps 760 mmHg 74%
    06:00 0°C° 0 mm 4 mps 761 mmHg 75%
    07:00 +2°C° 0 mm 5 mps 761 mmHg 70%
    08:00 +3°C° 0 mm 5 mps 762 mmHg 66%
    09:00 +4°C° 0 mm 6 mps 763 mmHg 61%
    10:00 +4°C° 0 mm 6 mps 763 mmHg 58%
    11:00 +6°C° 0 mm 5 mps 763 mmHg 55%
    12:00 +7°C° 0 mm 5 mps 763 mmHg 52%
    13:00 +6°C° 0 mm 5 mps 763 mmHg 51%
    14:00 +6°C° 0 mm 5 mps 763 mmHg 50%
    15:00 +6°C° 0 mm 4 mps 763 mmHg 49%
    16:00 +6°C° 0 mm 4 mps 764 mmHg 51%
    17:00 +5°C° 0 mm 3 mps 764 mmHg 53%
    18:00 +4°C° 0 mm 3 mps 764 mmHg 55%
    19:00 +3°C° 0 mm 3 mps 764 mmHg 58%
    20:00 +3°C° 0 mm 2 mps 764 mmHg 61%
    21:00 +3°C° 0 mm 2 mps 765 mmHg 63%
    22:00 +3°C° 0 mm 1 mps 765 mmHg 65%
    23:00 +3°C° 0 mm 1 mps 765 mmHg 67%

    1 April, Monday

    Time Temperature Precipitation Wind Pressure Humidity
    00:00 +2°C° 0 mm 1 mps 765 mmHg 69%
    01:00 +1°C° 0 mm 0 mps 764 mmHg 70%
    02:00 +1°C° 0 mm 0 mps 764 mmHg 71%
    03:00 +1°C° 0 mm 0 mps 764 mmHg 71%
    04:00 +2°C° 0 mm 1 mps 763 mmHg 71%
    05:00 +2°C° 0 mm 1 mps 763 mmHg 71%
    06:00 +2°C° 0 mm 1 mps 763 mmHg 70%
    07:00 +2°C° 0 mm 2 mps 763 mmHg 64%
    08:00 +4°C° 0 mm 2 mps 762 mmHg 58%
    09:00 +4°C° 0 mm 3 mps 762 mmHg 52%
    10:00 +5°C° 0 mm 3 mps 762 mmHg 51%
    11:00 +7°C° 0 mm 3 mps 761 mmHg 50%
    12:00 +7°C° 0 mm 4 mps 760 mmHg 48%
    13:00 +7°C° 0 mm 4 mps 759 mmHg 51%
    14:00 +7°C° 0 mm 4 mps 759 mmHg 53%
    15:00 +7°C° 0 mm 5 mps 758 mmHg 55%
    16:00 +7°C° 0 mm 5 mps 757 mmHg 57%
    17:00 +6°C° 0 mm 5 mps 756 mmHg 60%
    18:00 +6°C° 0 mm 5 mps 756 mmHg 62%
    19:00 +5°C° 0 mm 5 mps 755 mmHg 64%
    20:00 +5°C° 0 mm 5 mps 755 mmHg 66%
    21:00 +3°C° 0 mm 5 mps 754 mmHg 69%
    22:00 +3°C° 0.1 mm 6 mps 753 mmHg 71%
    23:00 +4°C° 0.1 mm 6 mps 752 mmHg 74%
    Show more